Regional Weather Roundup
Issued by NWS

Home | Current Version | Previous Version | Graphics & Text | Print | Product List | Glossary On
Versions: 1 2 3 4 5 6 7 8 9 10 11 12 13 14 15 16 17 18 19 20 21 22 23 24 25 26 27 28 29 30 31 32 33 34 35 36 37 38 39 40 41 42 43 44 45 46 47 48 49 50
000
ASUS44 KMEG 021910
RWRTN
TENNESSEE HOURLY STATE WEATHER ROUNDUP
NATIONAL WEATHER SERVICE MEMPHIS TN
200 PM CDT TUE JUN 02 2015

TNZ002-004-019-021-049-052-054-088>092-022000-
WEST TENNESSEE

CITY           SKY/WX    TMP DP  RH WIND       PRES   REMARKS
MEMPHIS INTL   CLOUDY    76  60  57 NE9       30.06F
NWS MEMPHIS      N/A     72 N/A N/A MISG        N/A
JACKSON        CLOUDY    69  59  70 W6        30.07F
DYERSBURG      CLOUDY    68  48  49 CALM      30.08F
PARIS          CLOUDY    64  55  72 N6        30.08F
LEXINGTON      CLOUDY    70  57  64 N7        30.05F
$$

TNZ008-025-027-028-033-062-065-066-022000-
NORTH MIDDLE TENNESSEE

CITY           SKY/WX    TMP DP  RH WIND       PRES   REMARKS
NASHVILLE      CLOUDY    67  59  75 N5        30.08F
CLARKSVILLE    CLOUDY    66  58  75 CALM      30.08F
SMYRNA         PTSUNNY   67  60  78 N7        30.07F
COOKEVILLE     CLOUDY    66  63  88 CALM      30.04F
CROSSVILLE     CLOUDY    69  59  70 N9        30.06F
$$

TNZ061-075-076-078-094-096-097-022000-
SOUTH MIDDLE TENNESSEE

CITY           SKY/WX    TMP DP  RH WIND       PRES   REMARKS
FAYETTEVILLE   CLOUDY   N/A N/A N/A MISG      30.04F
TULLAHOMA      PTSUNNY   72  61  68 VRB5      30.05F
WINCHESTER     CLOUDY    73  61  64 W6        30.03F
MCMINNVILLE    CLOUDY    70  64  83 N8        30.05F
COLUMBIA       CLOUDY    68  61  77 N3        30.05F
SHELBYVILLE    CLOUDY    70  63  78 NW9       30.06F
$$

TNZ017-018-042-046-047-022000-
NORTHEAST TENNESSEE

CITY           SKY/WX    TMP DP  RH WIND       PRES   REMARKS
TRI CITIES     TSTM      71  65  81 S3        30.03R
ELIZABETHTON   DRIZZLE   66  64  94 E6        30.04S
$$

TNZ012-013-036-069-073-074-022000-
CENTRAL EAST TENNESSEE

CITY           SKY/WX    TMP DP  RH WIND       PRES   REMARKS
KNOXVILLE      PTSUNNY   79  59  50 W8        29.98F
OAK RIDGE      CLOUDY    76  61  59 NW3       30.02F
GATLINBURG     MOCLDY    70  63  78 VRB5      30.00S
MORRISTOWN     CLEAR     72  64  78 SE5       30.01F
$$

TNZ083-085-099-022000-
SOUTHEAST TENNESSEE

CITY           SKY/WX    TMP DP  RH WIND       PRES   REMARKS
CHATTANOOGA    MOSUNNY   82  59  45 NW7       29.98F
$$

SKY/WX REPORTED AS FAIR MEANS FEW OR NO CLOUDS BELOW
12 THOUSAND FEET.




USA.gov is the U.S. government's official web portal to all federal, state and local government web resources and services.